Location: Arrington
(35.8681°N, 86.7092°W)
Time: 22:03:55
(UTC+00:00)

SEDSat Delta rocket - Pass Details

Date: 23 November 2019
Orbit: 533 x 1001 km, 31.4° (Epoch: 14 December)

Event Time Altitude Azimuth Distance (km) Brightness Sun altitude
Exits shadow 10:53:48 18° 211° (SSW) 1,351 4.6 -19.5°
Maximum altitude 10:55:58 28° 163° (SSE) 1,016 4.4 -19.0°
Drops below altitude 10° 10:59:37 10° 103° (ESE) 1,848 6.8 -18.3°
Sets 11:02:12 0° 92° (E) 2,802 8.0 -17.8°
